Regional Weather Roundup
Issued by NWS

Home | Current Version | Previous Version | Graphics & Text | Print | Product List | Glossary On
Versions: 1 2 3 4 5 6 7 8 9 10 11 12 13 14 15 16 17 18 19 20 21 22 23 24 25 26 27 28 29 30 31 32 33 34 35 36 37 38 39 40 41 42 43 44 45 46 47 48 49 50
000
ASUS43 KFSD 241202
RWRSD

WEATHER ROUNDUP FOR SOUTH DAKOTA
NATIONAL WEATHER SERVICE SIOUX FALLS SD
700 AM CDT SUN SEP 24 2017

NOTE: "FAIR" INDICATES FEW OR NO CLOUDS BELOW 12,000 FEET WITH NO
SIGNIFICANT WEATHER AND/OR OBSTRUCTIONS TO VISIBILITY.


SDZ001>005-009-010-012>017-241300-
NORTHWEST AND NORTH CENTRAL SOUTH DAKOTA

CITY           SKY/WX    TMP DP  RH WIND       PRES   REMARKS
BUFFALO          N/A     45  43  93 N10       29.96S
FAITH            N/A     45  45 100 N13       29.97R
MOBRIDGE       LGT RAIN  51  49  92 N14       29.88F FOG
$$

SDZ012>016-024>037-041>051-057-063-072>074-241300-
SOUTHWEST AND SOUTH CENTRAL SOUTH DAKOTA

CITY           SKY/WX    TMP DP  RH WIND       PRES   REMARKS
RAPID CTY ARPT CLOUDY    45  43  93 N15       30.01
PIERRE         LGT RAIN  51  50  96 N16       29.85F
CUSTER         CLOUDY    39  36  89 CALM      29.99R
ELLSWORTH AFB  CLOUDY    44  44 100 N13       30.00R
PHILIP         LGT RAIN  48  48 100 NW14      29.95S
PINE RIDGE     CLOUDY    46  45  96 NW9       30.00R
SPEARFISH      FOG       41  41 100 NW7       30.04R VSB 3/4
WINNER         LGT RAIN  53  51  93 NW6       29.89R
$$

SDZ004>011-016>023-039-040-241300-
NORTHEAST SOUTH DAKOTA

CITY           SKY/WX    TMP DP  RH WIND       PRES   REMARKS
ABERDEEN       LGT RAIN  54  54 100 NE6       29.85R
WATERTOWN      MOCLDY    60  60 100 SE6       29.85S
BROOKINGS      CLOUDY    64  62  93 S10       29.87R
SISSETON         N/A     60  60 100 SE7       29.83F
$$

SDZ017-020-022-023-036>040-048>070-241300-
SOUTHEAST SOUTH DAKOTA

CITY           SKY/WX    TMP DP  RH WIND       PRES   REMARKS
SIOUX FALLS    PTCLDY    70  65  84 S12       29.87R
HURON          LGT RAIN  57  56  96 S6        29.85R
CHAMBERLAIN    RAIN      54  54 100 NW8       29.87F
MITCHELL       FOG       57  57 100 CALM      29.85F VSB 1/2
YANKTON        CLOUDY    56  56 100 NE3       29.87S FOG
$$

ABBREVIATIONS USED IN REMARKS
   TC - TEMPERATURE IN CELSIUS
  WCI - WIND CHILL INDEX
   HX - HEAT INDEX
  VSB - VISIBILITY




USA.gov is the U.S. government's official web portal to all federal, state and local government web resources and services.